This demonstration page uses our WeatherBlox Daily Observations layout. Learn more.

Left ArrowRight Arrow

39.01783, -85.05884

Hourly Observations for July 30, 2020

Temp ( °F °C ) Dew Point ( °F °C ) Humidity (%) Winds ( mph kmh ) Pressure ( in mb ) Visibility ( mi km ) Precip ( " mm )
12:52 am 00:52 Cloudy 76 24.4 67 19.4 74 74 W 3 6 29.92 1013 10 16 0.00 0.00
1:52 am 01:52 Cloudy 74 23.3 68 20 82 82 Calm 29.91 1013 10 16 0.00 0.00
2:52 am 02:52 Cloudy 74 23.3 68 20 82 82 Calm 29.89 1012 10 16 0.00 0.00
3:52 am 03:52 Cloudy 73 22.8 68 20 84 84 Calm 29.88 1012 10 16 0.00 0.00
4:52 am 04:52 Cloudy 73 22.8 68 20 84 84 W 3 6 29.88 1012 10 16 0.00 0.00
5:52 am 05:52 Cloudy 73 22.8 69 20.6 87 87 Calm 29.88 1012 10 16 0.00 0.00
6:52 am 06:52 Mostly Cloudy 75 23.9 68 20 79 79 Calm 29.87 1012 10 16 0.00 0.00
7:52 am 07:52 Cloudy 78 25.6 68 20 71 71 NNE 3 6 29.87 1012 10 16 0.00 0.00
8:52 am 08:52 Cloudy 78 25.6 69 20.6 74 74 E 5 7 29.87 1012 9 14 0.00 0.00
9:52 am 09:52 Cloudy 78 25.6 69 20.6 74 74 Calm 29.87 1012 10 16 0.00 0.00
10:13 am 10:13 Cloudy with Nearby Thunderstorms 78 25.6 69 20.6 74 74 WNW 14 22 29.88 1012 6 10 0.00 0.00
10:19 am 10:19 Cloudy with Nearby Thunderstorms 73 22.8 70 21.1 90 90 W 17 28 29.90 1012 4 6 0.00 0.00
10:26 am 10:26 Cloudy with Nearby Thunderstorms 73 22.8 69 20.6 87 87 W 8 13 29.91 1013 2 2 0.06 1.52
10:39 am 10:39 Cloudy with Rain 72 22.2 69 20.6 91 91 NNW 6 9 29.91 1013 2 3 0.30 7.62
10:52 am 10:52 Cloudy with Light Rain 72 22.2 69 20.6 91 91 N 8 13 29.91 1013 4 6 0.40 10.16
11:03 am 11:03 Cloudy with Rain 71 21.7 69 20.6 94 94 N 5 7 29.91 1013 2 3 0.04 1.02
11:52 am 11:52 Cloudy with Light Rain 72 22.2 69 20.6 91 91 NNE 9 15 29.91 1013 2 3 0.21 5.33
12:06 pm 12:06 Cloudy with Light Rain 72 22.2 70 21.1 94 94 NNE 7 11 29.91 1013 2 3 0.03 0.76
12:52 pm 12:52 Cloudy with Light Rain 73 22.8 70 21.1 90 90 NNE 7 11 29.89 1012 2 3 0.11 2.79
1:52 pm 13:52 Cloudy with Light Rain 72 22.2 69 20.6 91 91 ENE 9 15 29.87 1012 2 3 0.15 3.81
1:54 pm 13:54 Cloudy with Light Rain 72 22.2 69 20.6 91 91 ENE 12 19 29.87 1012 2 3 0.02 0.51
2:44 pm 14:44 Cloudy with Rain 71 21.7 68 20 90 90 ENE 16 26 29.84 1011 3 5 0.17 4.32
2:52 pm 14:52 Cloudy with Rain 72 22.2 68 20 87 87 ENE 12 19 29.84 1011 3 5 0.19 4.83
3:20 pm 15:20 Cloudy with Heavy Rain 71 21.7 68 20 90 90 E 13 20 29.84 1011 2 3 0.04 1.02
3:24 pm 15:24 Cloudy with Heavy Rain 71 21.7 68 20 90 90 E 9 15 29.84 1011 1 2 0.06 1.52
3:33 pm 15:33 Cloudy with Heavy Rain 70 21.1 68 20 93 93 E 12 19 29.84 1011 2 3 0.17 4.32
3:52 pm 15:52 Cloudy with Rain 70 21.1 67 19.4 90 90 E 13 20 29.83 1010 3 4 0.24 6.10
4:06 pm 16:06 Cloudy with Heavy Rain 69 20.6 66 18.9 90 90 E 14 22 29.84 1010 2 2 0.08 2.03
4:22 pm 16:22 Cloudy with Heavy Rain 67 19.4 64 17.8 91 91 E 12 19 29.84 1010 2 2 0.26 6.60
4:40 pm 16:40 Cloudy with Rain 67 19.4 64 17.8 91 91 E 9 15 29.84 1010 3 4 0.34 8.64
4:52 pm 16:52 Cloudy with Heavy Rain 67 19.4 65 18.3 93 93 E 13 20 29.82 1010 3 4 0.40 10.16
4:58 pm 16:58 Cloudy with Rain 68 20 65 18.3 90 90 ENE 14 22 29.83 1010 4 6 0.03 0.76
5:12 pm 17:12 Cloudy with Rain 68 20 65 18.3 90 90 E 14 22 29.82 1010 4 6 0.05 1.27
5:52 pm 17:52 Cloudy with Light Rain 68 20 65 18.3 90 90 E 13 20 29.80 1009 5 8 0.20 5.08
6:18 pm 18:18 Cloudy with Light Rain 68 20 66 18.9 93 93 E 12 19 29.81 1009 6 10 0.03 0.76
6:35 pm 18:35 Cloudy with Light Rain 69 20.6 66 18.9 90 90 E 9 15 29.81 1009 6 10 0.04 1.02
6:52 pm 18:52 Cloudy with Rain 69 20.6 66 18.9 90 90 E 10 17 29.79 1009 5 8 0.05 1.27
7:52 pm 19:52 Cloudy 70 21.1 67 19.4 90 90 E 12 19 29.79 1009 9 14 0.05 1.27
8:52 pm 20:52 Cloudy 70 21.1 67 19.4 90 90 ENE 10 17 29.79 1009 9 14 0.00 0.00
9:52 pm 21:52 Cloudy with Light Rain 70 21.1 67 19.4 90 90 NE 10 17 29.80 1009 9 14 0.00 0.00
10:52 pm 22:52 Cloudy with Light Rain 70 21.1 67 19.4 90 90 ENE 9 15 29.80 1009 8 13 0.00 0.00
11:52 pm 23:52 Cloudy 71 21.7 67 19.4 87 87 NNE 10 17 29.80 1009 8 13 0.00 0.00

Powered by AerisWeather